Find Starlink 31985

NORAD ID: 60036 Int'l Des: 2024-111 Owner: SPXS Country: US Constellation: starlink operational
LEOCIRCULAR

实时位置

正在加载3D地球...

关于 Starlink 31985

正在加载描述...

即将过境

Passes for default location (London). Set your location on the main map for personalized predictions.

高度历史

Loading altitude history...

两行轨道根数

1 60036U 24111W 26126.37316560 -.00000865 00000-0 -17095-4 0 9999
2 60036 53.1604 167.7900 0001227 83.8181 276.2959 15.30182498107804
Epoch: May 6, 2026 • Age: 19 hours

当前状态

高度 480.8 km
速度 7.63 km/s
星下点 52.45°N, 19.61°W
发射日期 Jun 8, 2024
运行时间 1.9 years
类型 internet

技术详情

分类 Payload
质量 730.00 kg
干质量 700.00 kg
总质量 730.00 kg
长度 0.30 m
直径 4.10 m
跨度 29.00 m
形状 Box + pan
制造商 SPXS
平台类型 Starlink V2M
阶段状态 In Orbit
所有者/国家 SPXS/US

Most Searched